ONEWEB-0111

Last updated on Mon Jan 18 2021 00:02:03 GMT+0000 (Coordinated Universal Time)

1 47261U 20100D 21017.58334491 -.01395672 00000-0 -14672+0 0 9995 2 47261 87.3533 29.1842 0009180 159.9633 118.2018 14.92998870 1796

Satellite not in orbit